Tracking 25686 objects as of 25-May-2022
HD Live streaming from Space Station
objects crossing your sky now

ARIANE 5 R/B

Track ARIANE 5 R/B now!


NORAD ID: 36832
Int'l Code: 2010-037C
Perigee: 283.8 km
Apogee: 32,716.1 km
Inclination: 2.5 °
Period: 573.7 minutes
Semi major axis: 22870 km
RCS: 25.4404 m2 (large)
Launch date: August 4, 2010
Source: France (FR)
Launch site: FRENCH GUIANA (FRGUI)

Note: This is a ROCKET BODY
aabbcc
Your satellite tracking list
Your tracking list is empty




NASA's NSSDC Master Catalog

Two Line Element Set (TLE):
1 36832U 10037C   22144.60844834  .00002279  00000-0  10647-2 0  9993
2 36832   2.4650 335.4357 7090273  41.9388 354.6929  2.51001228103960
Source of the keplerian elements: AFSPC